TimeAKST,TemperatureF,Dew PointF,Humidity,Sea Level PressureIn,VisibilityMPH,Wind Direction,Wind SpeedMPH,Gust SpeedMPH,PrecipitationIn,Events,Conditions,WindDirDegrees,DateUTC
12:16 AM,33.8,30.2,87,29.84,10.0,West,3.5,-,N/A,,Clear,260,2013-01-22 09:16:00
12:36 AM,35.6,30.2,81,29.84,10.0,West,4.6,-,N/A,,Clear,260,2013-01-22 09:36:00
12:56 AM,37.4,30.2,75,29.84,10.0,SSW,5.8,-,N/A,,Clear,210,2013-01-22 09:56:00
1:16 AM,35.6,28.4,75,29.84,10.0,Calm,Calm,-,N/A,,Clear,0,2013-01-22 10:16:00
1:36 AM,35.6,30.2,81,29.83,10.0,Calm,Calm,-,N/A,,Clear,0,2013-01-22 10:36:00
1:56 AM,35.6,28.4,75,29.82,10.0,Calm,Calm,-,N/A,,Clear,0,2013-01-22 10:56:00
2:16 AM,35.6,28.4,75,29.82,10.0,SSW,3.5,-,N/A,,Clear,200,2013-01-22 11:16:00
2:36 AM,35.6,28.4,75,29.80,10.0,Calm,Calm,-,N/A,,Clear,0,2013-01-22 11:36:00
2:56 AM,35.6,30.2,81,29.80,10.0,Calm,Calm,-,N/A,,Clear,0,2013-01-22 11:56:00
3:16 AM,33.8,30.2,87,29.80,10.0,SW,4.6,-,N/A,,Clear,230,2013-01-22 12:16:00
3:36 AM,33.8,30.2,87,29.79,10.0,WSW,4.6,-,N/A,,Clear,240,2013-01-22 12:36:00
3:56 AM,33.8,30.2,87,29.78,10.0,WSW,5.8,-,N/A,,Clear,250,2013-01-22 12:56:00
4:16 AM,33.8,28.4,81,29.77,10.0,West,5.8,-,N/A,,Clear,260,2013-01-22 13:16:00
4:36 AM,33.8,30.2,87,29.77,10.0,West,4.6,-,N/A,,Clear,270,2013-01-22 13:36:00
4:56 AM,33.8,30.2,87,29.76,10.0,West,4.6,-,N/A,,Clear,260,2013-01-22 13:56:00
5:16 AM,33.8,30.2,87,29.75,10.0,Calm,Calm,-,N/A,,Clear,0,2013-01-22 14:16:00
5:36 AM,32.0,28.4,87,29.75,10.0,West,10.4,-,N/A,,Clear,280,2013-01-22 14:36:00
5:56 AM,32.0,28.4,87,29.75,10.0,West,9.2,-,N/A,,Clear,280,2013-01-22 14:56:00
6:16 AM,30.2,28.4,93,29.75,10.0,WSW,4.6,-,N/A,,Clear,250,2013-01-22 15:16:00
6:36 AM,32.0,28.4,87,29.76,10.0,WSW,6.9,-,N/A,,Clear,240,2013-01-22 15:36:00
6:56 AM,32.0,28.4,87,29.77,10.0,West,4.6,-,N/A,,Clear,270,2013-01-22 15:56:00
7:16 AM,30.2,28.4,93,29.77,10.0,SW,4.6,-,N/A,,Clear,220,2013-01-22 16:16:00
7:36 AM,32.0,28.4,87,29.78,10.0,South,4.6,-,N/A,,Clear,190,2013-01-22 16:36:00
7:56 AM,32.0,28.4,87,29.77,10.0,WSW,3.5,-,N/A,,Mostly Cloudy,240,2013-01-22 16:56:00
8:36 AM,-9999,-9999,N/A,-9999,10.0,North,-9999.0,-,N/A,,Mostly Cloudy,0,2013-01-22 17:36:00
8:53 AM,35.6,33.8,93,29.77,10.0,SW,9.2,-,N/A,,Overcast,230,2013-01-22 17:53:00
9:16 AM,37.4,30.2,75,29.77,10.0,SW,4.6,-,N/A,,Overcast,230,2013-01-22 18:16:00
9:36 AM,37.4,30.2,75,29.78,10.0,Calm,Calm,-,N/A,,Overcast,0,2013-01-22 18:36:00
9:56 AM,42.8,28.4,57,29.77,10.0,West,13.8,18.4,N/A,,Overcast,260,2013-01-22 18:56:00
10:16 AM,39.2,28.4,65,29.78,10.0,West,5.8,-,N/A,,Overcast,260,2013-01-22 19:16:00
10:36 AM,46.4,28.4,50,29.79,10.0,SE,12.7,23.0,N/A,,Overcast,130,2013-01-22 19:36:00
10:56 AM,44.6,30.2,57,29.78,10.0,East,5.8,29.9,N/A,,Overcast,100,2013-01-22 19:56:00
11:16 AM,46.4,30.2,53,29.76,10.0,ENE,5.8,-,N/A,,Overcast,70,2013-01-22 20:16:00
11:36 AM,46.4,30.2,53,29.75,10.0,SE,4.6,-,N/A,,Overcast,140,2013-01-22 20:36:00
11:56 AM,46.4,28.4,50,29.74,10.0,ENE,4.6,16.1,N/A,,Overcast,70,2013-01-22 20:56:00
12:16 PM,46.4,30.2,53,29.73,10.0,ENE,4.6,-,N/A,,Overcast,60,2013-01-22 21:16:00
12:36 PM,48.2,28.4,46,29.72,10.0,ESE,4.6,-,N/A,,Overcast,120,2013-01-22 21:36:00
12:56 PM,48.2,28.4,46,29.71,10.0,SE,5.8,-,N/A,,Overcast,140,2013-01-22 21:56:00
1:16 PM,48.2,28.4,46,29.70,10.0,SE,10.4,-,N/A,,Overcast,130,2013-01-22 22:16:00
1:36 PM,48.2,28.4,46,29.70,10.0,SSE,6.9,-,N/A,,Overcast,160,2013-01-22 22:36:00
1:56 PM,48.2,28.4,46,29.70,10.0,East,9.2,-,N/A,,Overcast,90,2013-01-22 22:56:00
2:16 PM,48.2,30.2,50,29.70,10.0,East,3.5,-,N/A,,Overcast,100,2013-01-22 23:16:00
2:36 PM,48.2,30.2,50,29.70,10.0,SSW,6.9,-,N/A,,Overcast,200,2013-01-22 23:36:00
2:56 PM,46.4,33.8,62,29.70,10.0,SSW,8.1,-,N/A,,Overcast,210,2013-01-22 23:56:00
3:16 PM,42.8,35.6,76,29.70,10.0,South,4.6,-,N/A,,Overcast,170,2013-01-23 00:16:00
3:36 PM,42.8,35.6,76,29.70,10.0,SSE,5.8,-,0.01,,Overcast,160,2013-01-23 00:36:00
3:56 PM,42.8,35.6,76,29.70,10.0,ENE,3.5,-,0.02,,Overcast,70,2013-01-23 00:56:00
4:16 PM,41.0,33.8,76,29.71,10.0,Calm,Calm,-,N/A,,Overcast,0,2013-01-23 01:16:00
4:36 PM,41.0,33.8,76,29.71,10.0,West,3.5,-,0.02,,Overcast,260,2013-01-23 01:36:00
4:56 PM,39.2,35.6,87,29.71,10.0,Calm,Calm,-,0.04,,Overcast,0,2013-01-23 01:56:00
5:16 PM,41.0,33.8,76,29.70,10.0,South,3.5,-,0.02,,Overcast,170,2013-01-23 02:16:00
5:36 PM,39.2,35.6,87,29.70,10.0,NNW,6.9,-,0.03,,Overcast,340,2013-01-23 02:36:00
5:56 PM,39.2,33.8,81,29.70,10.0,West,4.6,-,0.03,,Overcast,280,2013-01-23 02:56:00
6:16 PM,39.2,33.8,81,29.69,10.0,NNW,6.9,-,0.01,,Overcast,330,2013-01-23 03:16:00
6:36 PM,39.2,35.6,87,29.68,10.0,North,5.8,-,0.02,,Overcast,10,2013-01-23 03:36:00
6:56 PM,37.4,33.8,87,29.69,10.0,South,3.5,-,0.02,,Overcast,170,2013-01-23 03:56:00
7:16 PM,37.4,35.6,93,29.68,10.0,Calm,Calm,-,N/A,,Overcast,0,2013-01-23 04:16:00
7:36 PM,37.4,35.6,93,29.68,10.0,Calm,Calm,-,0.01,,Overcast,0,2013-01-23 04:36:00
7:56 PM,37.4,35.6,93,29.68,10.0,WNW,3.5,-,0.02,,Overcast,300,2013-01-23 04:56:00
8:16 PM,37.4,35.6,93,29.67,10.0,Calm,Calm,-,0.02,,Overcast,0,2013-01-23 05:16:00
8:36 PM,37.4,35.6,93,29.67,10.0,NW,3.5,-,0.03,,Overcast,310,2013-01-23 05:36:00
11:36 PM,37.4,35.6,93,29.66,8.0,Calm,Calm,-,N/A,,Unknown,0,2013-01-23 08:36:00
11:56 PM,37.4,35.6,93,29.66,10.0,North,4.6,-,N/A,,Overcast,360,2013-01-23 08:56:00